ALDN45 YSNW-YSNW

Flight info

Callsign ALDN45
Flight time 0h 3m
Altitude 2000
Route DCT
Aircraft PC21/L-SDE1E2E3FGHIJ2J3J4J5M1RWXYZ/S

Departure

Time 2026-05-07 06:36
Airport Naval Air Station Nowra - HMAS Albatross (YSNW)

Arrival

Time 2026-05-07 06:39
Airport Naval Air Station Nowra - HMAS Albatross (YSNW)
Time Latitude Longitude Altitude Speed Heading
2026-05-07 06:27 -34.93769 150.55279 349 ft 0 kts 133°
2026-05-07 06:29 -34.93769 150.55280 349 ft 1 kts 133°
2026-05-07 06:29 -34.93780 150.55277 353 ft 2 kts 246°
2026-05-07 06:30 -34.93762 150.55253 346 ft 7 kts 311°
2026-05-07 06:30 -34.93749 150.55198 349 ft 7 kts 260°
2026-05-07 06:30 -34.93771 150.55155 350 ft 7 kts 224°
2026-05-07 06:30 -34.93816 150.55102 357 ft 11 kts 223°
2026-05-07 06:31 -34.93881 150.55025 353 ft 15 kts 225°
2026-05-07 06:31 -34.93959 150.54926 356 ft 18 kts 230°
2026-05-07 06:31 -34.94045 150.54821 359 ft 18 kts 213°
2026-05-07 06:31 -34.94133 150.54725 363 ft 15 kts 223°
2026-05-07 06:32 -34.94197 150.54646 364 ft 12 kts 226°
2026-05-07 06:32 -34.94250 150.54586 366 ft 9 kts 224°
2026-05-07 06:32 -34.94303 150.54565 366 ft 9 kts 158°
2026-05-07 06:32 -34.94370 150.54610 364 ft 13 kts 154°
2026-05-07 06:33 -34.94436 150.54588 369 ft 10 kts 244°
2026-05-07 06:33 -34.94458 150.54526 366 ft 7 kts 240°
2026-05-07 06:33 -34.94482 150.54513 369 ft 7 kts 170°
2026-05-07 06:33 -34.94543 150.54549 364 ft 13 kts 154°
2026-05-07 06:34 -34.94645 150.54607 363 ft 18 kts 154°
2026-05-07 06:34 -34.94768 150.54681 354 ft 13 kts 153°
2026-05-07 06:34 -34.94801 150.54701 353 ft 3 kts 155°
2026-05-07 06:34 -34.94807 150.54705 352 ft 2 kts 154°
2026-05-07 06:35 -34.94841 150.54772 350 ft 16 kts 105°
2026-05-07 06:35 -34.94865 150.54874 347 ft 9 kts 107°
2026-05-07 06:35 -34.94924 150.54884 357 ft 13 kts 241°
2026-05-07 06:35 -34.94918 150.54639 354 ft 67 kts 273°
2026-05-07 06:36 -34.94846 150.53793 520 ft 131 kts 271°
2026-05-07 06:36 -34.94753 150.52587 1094 ft 146 kts 270°
2026-05-07 06:36 -34.94649 150.51356 1370 ft 146 kts 266°
2026-05-07 06:36 -34.95125 150.50386 1390 ft 143 kts 207°
2026-05-07 06:37 -34.96141 150.50538 1352 ft 168 kts 149°
2026-05-07 06:37 -34.96631 150.51934 1173 ft 192 kts 101°
2026-05-07 06:37 -34.96741 150.53519 1287 ft 174 kts 95°
2026-05-07 06:37 -34.96773 150.54911 1331 ft 165 kts 100°
2026-05-07 06:38 -34.96803 150.56306 1342 ft 167 kts 77°
2026-05-07 06:38 -34.96102 150.57289 1172 ft 150 kts 15°
2026-05-07 06:38 -34.95154 150.57245 1042 ft 130 kts 315°
2026-05-07 06:38 -34.94958 150.56309 792 ft 121 kts 261°
2026-05-07 06:39 -34.94960 150.55339 573 ft 115 kts 272°
2026-05-07 06:39 -34.94899 150.54397 365 ft 100 kts 274°
2026-05-07 06:39 -34.94879 150.54046 373 ft 0 kts 274°
2026-05-07 06:39 -34.94879 150.54047 373 ft 0 kts 274°
2026-05-07 06:40 -34.94879 150.54046 373 ft 0 kts 274°
2026-05-07 06:40 -34.94873 150.53955 387 ft 248 kts 273°
2026-05-07 06:41 -34.94687 150.52200 1059 ft 202 kts 274°
2026-05-07 06:41 -34.94816 150.50589 1263 ft 184 kts 227°
2026-05-07 06:41 -34.95969 150.50497 1238 ft 197 kts 149°
2026-05-07 06:41 -34.96486 150.52179 1269 ft 248 kts 82°
2026-05-07 06:42 -34.95382 150.53978 1161 ft 285 kts 37°
2026-05-07 06:42 -34.93879 150.55417 1202 ft 267 kts 35°
2026-05-07 06:42 -34.92434 150.56785 1193 ft 260 kts 38°
2026-05-07 06:42 -34.91108 150.58349 1256 ft 273 kts 42°
2026-05-07 06:43 -34.90630 150.58908 1155 ft 284 kts 42°
2026-05-07 06:43 -34.90408 150.59164 1132 ft 287 kts 42°
2026-05-07 06:43 -34.89364 150.60397 1154 ft 286 kts 44°
2026-05-07 06:43 -34.89285 150.60496 1152 ft 284 kts 45°
2026-05-07 06:44 -34.88004 150.62218 1230 ft 276 kts 49°
2026-05-07 06:44 -34.87974 150.64321 1312 ft 266 kts 141°
2026-05-07 06:44 -34.89463 150.64048 1261 ft 244 kts 238°
2026-05-07 06:44 -34.89785 150.61925 989 ft 273 kts 264°
2026-05-07 06:45 -34.90259 150.59698 1046 ft 278 kts 234°
2026-05-07 06:45 -34.91624 150.57906 842 ft 297 kts 226°
2026-05-07 06:45 -34.93087 150.56058 761 ft 307 kts 228°
2026-05-07 06:45 -34.94590 150.54202 887 ft 287 kts 242°
2026-05-07 06:46 -34.93576 150.53479 1130 ft 226 kts 19°
2026-05-07 06:46 -34.92464 150.54668 1146 ft 201 kts 55°
2026-05-07 06:46 -34.91716 150.55887 1070 ft 167 kts 60°
2026-05-07 06:46 -34.91941 150.56980 1018 ft 135 kts 173°
2026-05-07 06:47 -34.92650 150.56390 910 ft 139 kts 231°
2026-05-07 06:47 -34.93243 150.55627 643 ft 110 kts 225°
2026-05-07 06:47 -34.93762 150.54980 545 ft 113 kts 227°
2026-05-07 06:47 -34.94422 150.54211 1015 ft 157 kts 224°
2026-05-07 06:48 -34.95315 150.53285 1230 ft 181 kts 200°
2026-05-07 06:48 -34.96309 150.54114 1283 ft 207 kts 108°
2026-05-07 06:48 -34.95805 150.55738 1072 ft 226 kts 42°
2026-05-07 06:48 -34.94662 150.57065 1277 ft 231 kts 42°
2026-05-07 06:49 -34.93499 150.58402 1361 ft 235 kts 41°
2026-05-07 06:49 -34.92089 150.59355 1206 ft 240 kts 358°
2026-05-07 06:49 -34.90567 150.58722 1249 ft 233 kts 301°
2026-05-07 06:49 -34.90700 150.57011 1415 ft 224 kts 223°
2026-05-07 06:50 -34.92027 150.55889 1459 ft 232 kts 214°
2026-05-07 06:50 -34.93333 150.54886 1404 ft 216 kts 215°
2026-05-07 06:50 -34.94608 150.53948 1336 ft 215 kts 212°
2026-05-07 06:50 -34.96034 150.53621 1243 ft 220 kts 162°
2026-05-07 06:51 -34.96831 150.55176 1166 ft 231 kts 98°
2026-05-07 06:51 -34.96900 150.56904 1222 ft 178 kts 83°
2026-05-07 06:51 -34.96189 150.57881 1124 ft 148 kts 11°
2026-05-07 06:51 -34.95253 150.57792 870 ft 130 kts 320°
2026-05-07 06:52 -34.95011 150.56955 754 ft 98 kts 262°
2026-05-07 06:52 -34.94987 150.56078 606 ft 108 kts 269°
2026-05-07 06:52 -34.94947 150.55175 450 ft 105 kts 271°
2026-05-07 06:52 -34.94899 150.54327 365 ft 87 kts 271°
2026-05-07 06:53 -34.94822 150.53459 649 ft 128 kts 274°
2026-05-07 06:53 -34.94689 150.52145 1096 ft 182 kts 274°
2026-05-07 06:53 -34.94031 150.50785 1291 ft 243 kts 349°
2026-05-07 06:53 -34.92445 150.51916 1336 ft 301 kts 50°
2026-05-07 06:54 -34.91317 150.54205 1221 ft 325 kts 62°
2026-05-07 06:54 -34.90213 150.56662 1314 ft 336 kts 61°
2026-05-07 06:54 -34.89055 150.59187 1291 ft 346 kts 59°
2026-05-07 06:54 -34.87382 150.61208 1383 ft 344 kts 60°
2026-05-07 06:55 -34.88637 150.62508 1712 ft 295 kts 206°
2026-05-07 06:55 -34.90008 150.60655 1503 ft 305 kts 236°
2026-05-07 06:55 -34.91220 150.58468 1015 ft 316 kts 235°
2026-05-07 06:55 -34.92655 150.56461 631 ft 322 kts 225°
2026-05-07 06:56 -34.94245 150.54565 535 ft 307 kts 240°
2026-05-07 06:56 -34.93221 150.54083 883 ft 215 kts 39°
2026-05-07 06:56 -34.92220 150.55229 797 ft 184 kts 42°
2026-05-07 06:56 -34.92036 150.56481 821 ft 149 kts 138°
2026-05-07 06:57 -34.92803 150.56384 849 ft 126 kts 236°
2026-05-07 06:57 -34.93248 150.55596 522 ft 102 kts 227°
2026-05-07 06:57 -34.93757 150.54990 362 ft 99 kts 226°
2026-05-07 06:57 -34.94131 150.54540 365 ft 30 kts 224°
2026-05-07 06:58 -34.94234 150.54465 367 ft 10 kts 154°
2026-05-07 06:58 -34.94287 150.54528 366 ft 12 kts 132°
2026-05-07 06:58 -34.94348 150.54599 365 ft 13 kts 157°
2026-05-07 06:58 -34.94420 150.54611 369 ft 7 kts 225°
2026-05-07 06:59 -34.94441 150.54589 367 ft 2 kts 150°
2026-05-07 06:59 -34.94447 150.54593 367 ft 0 kts 150°